[[{"header":{"parameterUnit":"m.s-1","parameterCategory":1,"la1":30.2991,"la2":30.254,"lo1":-89.0895,"lo2":-89.0444,"dy":0.0017,"dx":0.0017,"nx":28,"ny":28,"refTime":"2024-06-07T21:00:00:Z","depth":0,"parameterNumber":2,"parameterNumberName":"U-component_of_WINDS"},"data":[0,0,0,0,0,0,0,0,0,0,0,0,0,0,0,0,0,0,0,0,0,0,0,0,0,0,0,0,0,0,0,0,0,0,0,0,0,0,0,0,0,0,0,0,0,0,0,0,0,0,0,0,0,0,0,0,0,0,2.3339,2.3339,0,2.3352,2.3352,2.3353,2.3285,2.3283,2.3281,2.3279,2.3295,2.3297,2.3299,0,0,0,0,0,0,0,0,0,0,0,0,0,2.3257,2.3259,2.3339,2.3339,2.3339,2.3352,2.3352,2.3353,2.3285,2.3283,2.328,2.3278,2.3294,2.3297,2.3299,0,0,0,0,0,0,0,0,0,0,0,0,0,2.3284,2.3259,2.3339,2.3307,2.3304,2.3352,2.3352,2.3353,2.3286,2.3283,2.328,2.3277,2.3293,2.3296,2.33,2.338,0,0,2.331,2.3312,0,0,0,0,0,0,0,0,2.3282,2.3287,2.3312,2.3309,2.3306,2.3314,2.3329,2.3362,2.3286,2.3293,2.3279,2.3276,2.3304,2.3306,2.3315,2.338,2.3381,2.331,2.3312,2.3314,2.3315,0,0,0,0,0,0,0,2.3281,2.3286,2.3344,2.3312,2.3309,2.3293,2.3293,2.3335,2.3315,2.3292,2.3287,2.329,2.3302,2.3312,2.3315,2.3381,2.331,2.3313,2.3315,2.3317,2.3513,2.3516,0,0,0,0,0,0,2.3283,2.3285,2.3344,2.3345,2.3287,2.3297,2.3297,2.3314,2.3314,2.3311,2.3292,2.3286,2.3308,2.3311,2.3315,2.3408,2.3314,2.3317,2.3319,2.351,2.3514,2.3517,0,0,0,0,0,0,2.3281,2.3289,2.3343,2.3313,2.3319,2.3301,2.3321,2.3316,2.3326,2.3314,2.331,2.3306,2.3305,2.331,2.3364,2.3408,2.3319,2.3322,2.3506,2.3511,2.3515,2.3596,0,0,0,0,0,0,2.3279,2.3288,2.3318,2.3315,2.3321,2.3391,2.3324,2.3319,2.3332,2.3325,2.3326,2.3324,2.3303,2.3359,2.3367,2.3411,2.3324,2.3502,2.3508,2.3514,2.3589,2.3602,2.3614,0,0,0,0,0,2.3276,2.334,2.332,2.3327,2.3357,2.3394,2.3398,2.3373,2.3336,2.3366,2.3358,2.3324,2.3402,2.3365,2.3374,2.3419,2.3499,2.3506,2.3513,2.3583,2.36,2.3614,0,0,0,0,0,0,2.335,2.3339,2.3316,2.3381,2.3389,2.3382,2.3419,2.3391,2.341,2.3402,2.3371,2.3372,2.3431,2.343,2.339,2.3496,2.3444,2.3453,2.3494,2.351,2.3522,2.3521,2.3327,0,0,0,0,0,2.3374,2.3404,2.3393,2.3451,2.3456,2.3437,2.3452,2.3432,2.3439,2.3443,2.3439,2.3447,2.3474,2.3492,2.3516,2.3589,2.3588,2.3624,2.3637,2.3647,2.3655,2.3694,2.371,2.3541,2.3541,2.354,0,0,2.3423,2.3421,2.3442,2.3466,2.3469,2.3502,2.344,2.3477,2.3501,2.3448,2.3498,2.3496,2.3504,2.3567,2.3595,2.3569,2.3702,2.3656,2.3665,2.3667,2.3703,2.3719,2.3733,2.3545,2.3545,2.3544,0,0,2.3529,2.353,2.3579,2.3584,2.359,2.3577,2.3589,2.3587,2.3583,2.3633,2.3594,2.3623,2.3669,2.3676,2.3686,2.3796,2.3765,2.3805,2.3871,2.3909,2.3922,2.3934,2.3973,2.3987,2.3813,2.3813,2.3814,0,2.3589,2.3636,2.3608,2.3647,2.3659,2.3612,2.3662,2.3668,2.3682,2.3692,2.3662,2.372,2.3722,2.3786,2.3813,2.3823,2.3836,2.3804,2.3922,2.3934,2.3944,2.3981,2.3996,2.3818,2.3818,2.3817,2.3817,0,2.371,2.3743,2.3781,2.3795,2.3812,2.3856,2.3835,2.3856,2.3835,2.3825,2.3877,2.3878,2.3901,2.3915,2.3895,2.3977,2.3961,2.3927,2.3874,2.3965,2.3999,2.4013,2.3825,2.3823,2.3822,2.3821,0,0,2.3861,2.386,2.3874,2.388,2.3884,2.391,2.3952,2.3974,2.3992,2.4004,2.4039,2.408,2.4049,2.406,2.4041,2.4075,2.4162,2.4037,2.4036,2.406,2.4252,2.4277,2.4293,2.4141,2.4144,2.4146,2.4251,0,2.3964,2.4036,2.4012,2.4085,2.4116,2.4073,2.411,2.4117,2.411,2.4135,2.4127,2.4156,2.4113,2.412,2.4151,2.4144,2.42,2.4137,2.4174,2.4176,2.4172,2.4311,2.4337,2.4436,2.4264,2.4267,2.4268,0,2.4094,2.411,2.4186,2.4186,2.4197,2.4231,2.425,2.4274,2.4282,2.4274,2.4287,2.4261,2.4304,2.4251,2.4309,2.4267,2.4281,2.4281,2.4284,2.4286,2.4227,2.4316,2.4467,2.4482,2.4289,2.4287,2.4286,0,2.4196,2.4238,2.4288,2.4295,2.4295,2.432,2.4322,2.4326,2.4341,2.4358,2.4368,2.439,2.4402,2.4419,2.44,2.4364,2.4462,2.4407,2.4457,2.4457,2.4478,2.4477,2.4633,2.4489,2.4489,2.4489,2.4488,0,2.4314,2.4362,2.4334,2.4365,2.4418,2.4391,2.4445,2.4441,2.4446,2.4476,2.4441,2.4471,2.4444,2.4471,2.4457,2.4507,2.4513,2.4508,2.4504,2.4511,2.4512,2.4519,2.4512,2.4493,2.4492,2.4491,2.449,0,2.4436,2.442,2.4472,2.4469,2.4469,2.4508,2.4505,2.4534,2.4525,2.4564,2.4571,2.4557,2.4587,2.457,2.4601,2.4592,2.4657,2.4644,2.4654,2.465,2.47,2.4696,2.4866,2.4887,2.473,2.4732,2.4733,0,2.4511,2.4547,2.4548,2.4565,2.4569,2.4598,2.4613,2.4589,2.4606,2.4618,2.4645,2.4673,2.4693,2.4743,2.4736,2.476,2.4746,2.4804,2.475,2.4756,2.4747,2.4744,2.4748,2.4815,2.4817,2.4819,2.482,0,2.4647,2.4637,2.466,2.4681,2.47,2.4715,2.4727,2.4743,2.4719,2.4741,2.4771,2.4787,2.4818,2.4846,2.4867,2.4869,2.4841,2.4837,2.485,2.4857,2.4861,2.4859,2.4684,2.4833,2.4832,2.4831,2.483,2.483,2.4748,2.4778,2.4783,2.4809,2.4816,2.4829,2.4856,2.485,2.4874,2.4898,2.4882,2.4918,2.4926,2.495,2.4956,2.4984,2.4961,2.4979,2.4984,2.4989,2.4995,2.4858,2.4988,2.4988,2.4987,2.4987,2.4987,0,2.4881,2.4882,2.4907,2.4925,2.4947,2.4918,2.493,2.495,2.4982,2.4991,2.5012,2.5047,2.5074,2.5069,2.5093,2.5117,2.5104,2.5124,2.5121,2.5122,2.5015,2.5001,2.5133,2.5133,2.5133,2.5133,2.5133,2.5133,2.4952,2.5001,2.4993,2.5045,2.5046,2.508,2.509,2.5101,2.5108,2.5149,2.5171,2.5167,2.5171,2.5196,2.5219,2.5217,2.5228,2.5252,2.5245,2.5145,2.513,2.5116,2.5103,2.5255,2.5255,2.535,2.5351,2.5352]},{"header":{"parameterUnit":"m.s-1","parameterCategory":1,"la1":30.2991,"la2":30.254,"lo1":-89.0895,"lo2":-89.0444,"dy":0.0017,"dx":0.0017,"nx":28,"ny":28,"refTime":"2024-06-07T21:00:00:Z","depth":0,"parameterNumber":3,"parameterNumberName":"V-component_of_WINDS"},"data":[0,0,0,0,0,0,0,0,0,0,0,0,0,0,0,0,0,0,0,0,0,0,0,0,0,0,0,0,0,0,0,0,0,0,0,0,0,0,0,0,0,0,0,0,0,0,0,0,0,0,0,0,0,0,0,0,0,0,1.6392,1.6392,0,1.6341,1.6341,1.634,1.6287,1.6286,1.6285,1.6285,1.6231,1.6231,1.623,0,0,0,0,0,0,0,0,0,0,0,0,0,1.6443,1.6443,1.6392,1.6392,1.6391,1.6341,1.6341,1.634,1.6287,1.6286,1.6285,1.6284,1.6232,1.6231,1.623,0,0,0,0,0,0,0,0,0,0,0,0,0,1.641,1.6443,1.6393,1.6359,1.6355,1.6341,1.6341,1.634,1.6287,1.6286,1.6285,1.6284,1.6232,1.6231,1.623,1.6245,0,0,1.6226,1.6226,0,0,0,0,0,0,0,0,1.6412,1.6408,1.6364,1.6361,1.6357,1.6319,1.6339,1.6308,1.6287,1.6313,1.6285,1.6283,1.6262,1.6258,1.6251,1.6242,1.624,1.6226,1.6226,1.6225,1.6225,0,0,0,0,0,0,0,1.6414,1.641,1.6372,1.6364,1.6359,1.6346,1.634,1.6333,1.6294,1.6311,1.6307,1.6301,1.6259,1.6252,1.6249,1.6239,1.6226,1.6225,1.6225,1.6224,1.624,1.6241,0,0,0,0,0,0,1.6422,1.6412,1.6374,1.6371,1.6382,1.6346,1.6339,1.6333,1.6294,1.6287,1.6302,1.6299,1.6254,1.625,1.6247,1.6261,1.6225,1.6224,1.6224,1.6238,1.624,1.6241,0,0,0,0,0,0,1.6423,1.6419,1.6376,1.639,1.6384,1.6346,1.6339,1.6332,1.6325,1.6288,1.628,1.6302,1.6253,1.6249,1.6246,1.6258,1.6224,1.6223,1.6237,1.6239,1.624,1.629,0,0,0,0,0,0,1.6425,1.642,1.6425,1.6391,1.6383,1.6376,1.634,1.6332,1.6323,1.6318,1.6285,1.6279,1.6252,1.6248,1.6244,1.6256,1.6222,1.6236,1.6238,1.624,1.6287,1.6293,1.6298,0,0,0,0,0,1.6427,1.6441,1.6426,1.6421,1.6389,1.6377,1.6372,1.6341,1.6324,1.6329,1.6305,1.628,1.6258,1.6248,1.6244,1.6255,1.6235,1.6237,1.624,1.6284,1.6292,1.6298,0,0,0,0,0,0,1.6478,1.6436,1.6418,1.6422,1.6403,1.6368,1.6373,1.635,1.6336,1.6332,1.6294,1.6287,1.6288,1.6272,1.6261,1.6267,1.6243,1.6244,1.6278,1.6285,1.629,1.6293,1.6221,0,0,0,0,0,1.649,1.6483,1.6447,1.6454,1.6445,1.6411,1.6404,1.6382,1.6361,1.6353,1.6328,1.6309,1.6297,1.629,1.6277,1.6285,1.6276,1.6291,1.6296,1.6301,1.6303,1.6304,1.631,1.6249,1.6249,1.6249,0,0,1.6514,1.649,1.6488,1.6463,1.6446,1.6439,1.6405,1.6399,1.6394,1.6352,1.6347,1.6329,1.6304,1.6306,1.6306,1.6292,1.6318,1.6304,1.6308,1.6307,1.6307,1.6313,1.6318,1.625,1.625,1.625,0,0,1.6554,1.6536,1.6539,1.6522,1.6497,1.6474,1.6475,1.6443,1.6429,1.6424,1.6392,1.6385,1.6366,1.6349,1.6339,1.6373,1.6348,1.637,1.6398,1.64,1.6405,1.6409,1.642,1.6424,1.6372,1.6372,1.6372,0,1.6586,1.6576,1.6543,1.654,1.6529,1.6492,1.6494,1.648,1.6451,1.6445,1.643,1.6405,1.6386,1.6383,1.6391,1.6384,1.6383,1.6373,1.6407,1.6411,1.6414,1.6424,1.6428,1.6374,1.6374,1.6374,1.6374,0,1.6617,1.661,1.6615,1.6589,1.6579,1.6579,1.6546,1.6541,1.652,1.6498,1.6493,1.6469,1.645,1.6448,1.6427,1.6442,1.6434,1.6414,1.6388,1.6423,1.6432,1.6435,1.6378,1.6377,1.6376,1.6376,0,0,1.6686,1.6642,1.6645,1.6632,1.6601,1.6595,1.6593,1.6575,1.657,1.6552,1.6548,1.6534,1.6515,1.6502,1.648,1.6481,1.6508,1.6461,1.646,1.6469,1.6521,1.6536,1.6541,1.6493,1.6493,1.6494,1.6523,0,1.672,1.6714,1.6685,1.6687,1.6679,1.6643,1.6641,1.6622,1.6602,1.6593,1.657,1.656,1.6536,1.6529,1.6529,1.6505,1.6518,1.6503,1.6488,1.6488,1.6494,1.6545,1.656,1.6589,1.6526,1.6527,1.6527,0,1.6758,1.6742,1.6744,1.6713,1.6708,1.6707,1.6688,1.668,1.6657,1.6642,1.6629,1.6603,1.6598,1.6575,1.6567,1.6558,1.655,1.6537,1.6538,1.6534,1.6509,1.6542,1.6598,1.6601,1.6532,1.6532,1.6532,0,1.6807,1.6786,1.6784,1.6774,1.6739,1.6738,1.6723,1.6699,1.669,1.6674,1.6667,1.6651,1.6641,1.6628,1.6599,1.6585,1.6594,1.6568,1.658,1.6581,1.6582,1.6582,1.6637,1.658,1.658,1.658,1.658,0,1.6846,1.6848,1.6805,1.6804,1.6805,1.6772,1.6773,1.6755,1.6734,1.6728,1.6696,1.6691,1.6653,1.6644,1.6621,1.6617,1.6613,1.66,1.6594,1.6602,1.6604,1.6596,1.6592,1.6581,1.6581,1.6581,1.6581,0,1.69,1.6872,1.6867,1.6833,1.6825,1.6827,1.6798,1.6795,1.6774,1.6767,1.6763,1.6729,1.6716,1.6686,1.6665,1.6649,1.6651,1.664,1.6658,1.6654,1.6667,1.6666,1.6717,1.6721,1.6664,1.6664,1.6665,0,1.6926,1.6927,1.6894,1.6887,1.6874,1.6864,1.6855,1.6823,1.6814,1.6788,1.6788,1.6773,1.6759,1.6739,1.6713,1.6696,1.6684,1.6703,1.6681,1.6689,1.6682,1.6682,1.6681,1.6707,1.6708,1.6709,1.6709,0,1.6975,1.6961,1.6949,1.6932,1.6922,1.6907,1.689,1.6887,1.685,1.6842,1.6829,1.6818,1.6797,1.6781,1.6761,1.6745,1.672,1.6717,1.6718,1.6726,1.6736,1.6729,1.667,1.6715,1.6715,1.6714,1.6714,1.6714,1.7015,1.7013,1.699,1.6977,1.6961,1.6946,1.6942,1.692,1.6908,1.6888,1.687,1.6858,1.6835,1.6805,1.6791,1.6781,1.6768,1.6771,1.6772,1.6772,1.6775,1.6739,1.6777,1.6777,1.6777,1.6776,1.6776,0,1.7061,1.7044,1.7033,1.7011,1.7001,1.698,1.696,1.6953,1.6943,1.6924,1.6911,1.6895,1.688,1.6853,1.6835,1.6832,1.6821,1.6829,1.6828,1.6824,1.6788,1.6788,1.6838,1.6838,1.6838,1.6838,1.6838,1.6838,1.7083,1.7079,1.7063,1.7051,1.7034,1.7022,1.7013,1.6999,1.6983,1.6967,1.6955,1.6937,1.6914,1.6895,1.688,1.6872,1.6866,1.6878,1.6866,1.6833,1.6827,1.6821,1.6821,1.6877,1.6877,1.6903,1.6903,1.6903]}]]